Other Public Products
Issued by NWS Charleston, SC

Current Version | Previous Version | Graphics & Text | Print | Product List | Glossary On
Versions: 1 2 3 4 5 6 7 8 9 10 11 12 13 14 15 16 17 18 19 20 21 22 23 24 25 26 27 28 29 30 31 32 33 34 35 36 37 38 39 40 41 42 43 44 45 46 47 48 49 50
000
FPUS82 KCHS 200524
OPUCHS

TEST...KCHS/KSAV Gateway Observations...TEST
National Weather Service Charleston SC
100 AM EDT WED SEP 20 2017

NOTE: "fair" indicates few or no clouds below 12,000 feet with no
significant weather and/or obstructions to visibility.

SCZ050-WAZ558-NCZ071-TXZ119-213-PAZ071-DCZ001-FLZ074-172-MI076-
NYZ176-178-MAZ016-IL014-TNZ027-NJZ106-GAZ044-MD014-200600-

...Gateway Observations for Charleston International...

CITY           SKY/WX    TMP DP  RH WIND       PRES   REMARKS
Chas Airport   CLEAR     74  73  97 S5        29.97S
Seattle        MOCLDY    53  48  83 S5        29.75F
Charlotte      CLEAR     71  69  93 CALM      30.00S
Dallas DFW     CLOUDY    80  71  74 E6        29.82F
Dallas Love    CLOUDY    83  66  56 E6        29.84F
Philladelphia  CLOUDY    72  64  76 N12       29.85F
Wash National  PTCLDY    72  66  81 N8        29.92S
Baltimore      MOCLDY    71  66  84 N6        29.90S
Miami          MOCLDY    83  77  82 S5        29.96S HX  92
Detroit        CLOUDY    68  67  96 E5        29.97S FOG
Newark         MOCLDY    72  64  76 N17G26    29.85S
Laguardia      CLOUDY    72  65  78 N14       29.84F
J F K          MOCLDY    72  64  76 N16G30    29.84F
Boston Logan   CLOUDY    64  63  96 N16       29.95F FOG
Ft. Lauderdale CLOUDY    83  74  73 SE5       29.95S HX  90
Chicago O`Hare CLEAR     67  62  84 E6        29.92F
Chicago Midway CLEAR     68  64  87 CALM      29.92F
Houston Bush   CLOUDY    80  76  87 S5        29.90S
Houston Hobby  MOCLDY    81  76  84 S6        29.89F
Nashville      PTCLDY    69  67  93 S3        29.98S
Atlanta        PTCLDY    73  68  84 CALM      30.01R

$$

GAZ044-118-TXZ119-213-NCZ071-DCZ001-MDZ014-506-PAZ021-071-NJZ106-
NYZ176-178-MAZ106-OHZ011-021-055-MIZ076-KYZ091-ILZ014-INZ047-
MNZ060-ONZ431-200600-

...Gateway Observations for Savannah International...

CITY           SKY/WX    TMP DP  RH WIND       PRES   REMARKS
Savannah Arpt  CLEAR     75  72  90 S5        29.98F
Atlanta        PTCLDY    73  68  84 CALM      30.01R
Charlotte      CLEAR     71  69  93 CALM      30.00S
Dallas DFW     CLOUDY    80  71  74 E6        29.82F
Houston Bush   CLOUDY    80  76  87 S5        29.90S
Wash National  PTCLDY    72  66  81 N8        29.92S
Wash Dulles    PTCLDY    65  64  97 NW3       29.93S
Baltimore      MOCLDY    71  66  84 N6        29.90S
Philadelphia   CLOUDY    72  64  76 N12       29.85F
Newark         MOCLDY    72  64  76 N17G26    29.85S
Laguardia      CLOUDY    72  65  78 N14       29.84F
J F K          MOCLDY    72  64  76 N16G30    29.84F
Boston         CLOUDY    64  63  96 N16       29.95F FOG
Pittsburg      PTCLDY    66  63  90 CALM      29.99S
Akron          CLOUDY    70  63  78 E3        29.99S
Cleveland      CLOUDY    71  64  78 S3        29.99S
Cincinnati     CLEAR     65  65 100 S6        29.97S
Columbus       CLOUDY    67  67  99 CALM      29.96F
Detroit        CLOUDY    68  67  96 E5        29.97S FOG
Chicago O`Hare CLEAR     67  62  84 E6        29.92F
Minneapolis    CLOUDY    72  64  76 SE13      29.66F
Indianapolis   PTCLDY    69  66  90 SE5       29.95R
Toronto Canada PTCLDY    68  63  83 NE5       30.00S

$$




USA.gov is the U.S. government's official web portal to all federal, state and local government web resources and services.